Project,Study,Ord_Occ,Event_Num,Cast_ID,Date_Time_UTC,Date_Time_PST,Lat_Dec,Lon_Dec,Sta_ID,Line,Sta,Depth,Pressure,PrQ,Temp1,Temp1Q,Temp2,Temp2Q,TempAve,Salt1,Salt1Q,Salt1_Corr,Salt2,Salt2Q,Salt2_Corr,SaltAve_Corr,Ox1,Ox1Q,Ox1_CruiseCorr,Ox1_StaCorr,Ox2,Ox2Q,Ox2_CruiseCorr,Ox2_StaCorr,OxAve_StaCorr,Ox1uM,Ox1uM_CruiseCorr,Ox1uM_StaCorr,Ox2uM,Ox2uM_CruiseCorr,Ox2uM_StaCorr,OxAveuM_StaCorr,FluorV,FluorQ,EstChl_CruiseCorr,EstChl_StaCorr,ISUSV,ISUSQ,EstNO3_CruiseCorr,EstNO3_StaCorr,SigThetaTS1,SigThetaTS1Q,SigThetaTS2,SigThetaTS2Q,BAT,XMiss,TransQ,pH,pHQ,SPAR,SPARQ,PAR,PARQ,PoT1,PoT2,DynHt,SVA,OxSat1,OxSat2,BTL_Depth,BTL_Temp,SaltB,OxB,OxBuM,Chl-a,Phaeo,NO3,NO2,NH4,PO4,SIL
CalCOFI,2101RL,036,,2101_036d,23-Jan-2021 19:06:44,23-Jan-2021 11:06:44,33.65572,-118.97174,086.7 040.0,086.7,040.0,2.000,2.015,,14.6321,,14.6325,,14.6323,33.5246,,33.5304,33.5215,,33.5235,33.5270,5.6423,,5.9051,5.9105,5.5409,,5.8830,5.8772,5.8939,245.862,257.6285,257.7463,241.442,273.8548,256.2958,257.0211,0.1658,,1.1104,1.6200, ,, , ,24.9139,,24.9115,,0.9508,78.8431,,,,5.5369E+02,,9.7999E+00,,14.6319,14.6322,-0.0017,303.027,97.504,95.749,,,,,,,,,,,,
CalCOFI,2101RL,036,,2101_036d,23-Jan-2021 19:06:59,23-Jan-2021 11:06:59,33.65564,-118.97173,086.7 040.0,086.7,040.0,3.000,3.021,,14.6326,,14.6329,,14.6328,33.5246,,33.5304,33.5217,,33.5237,33.5271,5.6363,,5.8989,5.9042,5.5520,,5.8948,5.8891,5.8967,245.597,257.3511,257.4684,241.924,273.5601,256.8104,257.1394,0.1757,,1.1915,1.7418, ,, , ,24.9139,,24.9115,,0.9489,78.8804,,,,5.5963E+02,,7.3487E+00,,14.6321,14.6324,0.0060,303.059,97.399,95.941,3,,33.5132,5.918,258.03,1.732,0.217,,,,,
CalCOFI,2101RL,036,,2101_036d,23-Jan-2021 19:07:03,23-Jan-2021 11:07:03,33.65562,-118.97172,086.7 040.0,086.7,040.0,4.000,4.029,,14.6328,,14.6331,,14.6330,33.5247,,33.5305,33.5217,,33.5237,33.5271,5.6373,,5.8999,5.9052,5.5610,,5.9043,5.8987,5.9020,245.642,257.3982,257.5156,242.318,273.6102,257.2310,257.3733,0.1710,,1.1530,1.6840, ,, , ,24.9139,,24.9116,,0.9494,78.8708,,,,5.6151E+02,,6.1162E+00,,14.6322,14.6325,0.0099,303.082,97.418,96.098,,,,,,,,,,,,
CalCOFI,2101RL,036,,2101_036d,23-Jan-2021 19:07:07,23-Jan-2021 11:07:07,33.65562,-118.97172,086.7 040.0,086.7,040.0,5.000,5.036,,14.6346,,14.6348,,14.6347,33.5250,,33.5308,33.5219,,33.5239,33.5274,5.6321,,5.8945,5.8998,5.5444,,5.8867,5.8810,5.8904,245.416,257.1617,257.2786,241.595,273.3588,256.4591,256.8689,0.1689,,1.1358,1.6582, ,, , ,24.9138,,24.9114,,0.9493,78.8735,,,,5.6365E+02,,5.1329E+00,,14.6339,14.6340,0.0132,303.127,97.332,95.815,,,,,,,,,,,,
CalCOFI,2101RL,036,,2101_036d,23-Jan-2021 19:07:08,23-Jan-2021 11:07:08,33.65562,-118.97172,086.7 040.0,086.7,040.0,6.000,6.043,,14.6337,,14.6338,,14.6338,33.5246,,33.5304,33.5215,,33.5235,33.5270,5.6289,,5.8911,5.8964,5.5592,,5.9024,5.8968,5.8966,245.274,257.0130,257.1297,242.241,273.2009,257.1488,257.1393,0.1732,,1.1710,1.7111, ,, , ,24.9137,,24.9113,,0.9512,78.8365,,,,5.6529E+02,,4.2118E+00,,14.6329,14.6329,0.0163,303.168,97.274,96.069,,,,,,,,,,,,
CalCOFI,2101RL,036,,2101_036d,23-Jan-2021 19:07:09,23-Jan-2021 11:07:09,33.65561,-118.97172,086.7 040.0,086.7,040.0,7.000,7.050,,14.6343,,14.6345,,14.6344,33.5248,,33.5306,33.5218,,33.5238,33.5272,5.6406,,5.9034,5.9087,5.5573,,5.9004,5.8947,5.9017,245.784,257.5469,257.6645,242.158,273.7681,257.0602,257.3624,0.1753,,1.1882,1.7369, ,, , ,24.9137,,24.9114,,0.9508,78.8434,,,,5.6346E+02,,3.3576E+00,,14.6333,14.6334,0.0193,303.194,97.477,96.037,,,,,,,,,,,,
CalCOFI,2101RL,036,,2101_036d,23-Jan-2021 19:07:10,23-Jan-2021 11:07:10,33.65560,-118.97172,086.7 040.0,086.7,040.0,8.000,8.057,,14.6319,,14.6319,,14.6319,33.5240,,33.5298,33.5211,,33.5231,33.5265,5.6403,,5.9030,5.9084,5.5601,,5.9034,5.8977,5.9031,245.771,257.5333,257.6509,242.277,273.7536,257.1872,257.4191,0.1800,,1.2267,1.7947, ,, , ,24.9137,,24.9115,,0.9499,78.8615,,,,5.6345E+02,,2.7795E+00,,14.6307,14.6308,0.0224,303.223,97.467,96.079,,,,,,,,,,,,
CalCOFI,2101RL,036,,2101_036d,23-Jan-2021 19:07:12,23-Jan-2021 11:07:12,33.65560,-118.97172,086.7 040.0,086.7,040.0,9.000,9.065,,14.6263,,14.6264,,14.6264,33.5230,,33.5288,33.5199,,33.5219,33.5254,5.6425,,5.9053,5.9107,5.5546,,5.8975,5.8918,5.9013,245.870,257.6369,257.7547,242.039,273.8637,256.9331,257.3439,0.1888,,1.2988,1.9030, ,, , ,24.9141,,24.9117,,0.9508,78.8443,,,,5.6527E+02,,2.2211E+00,,14.6250,14.6251,0.0254,303.215,97.495,95.974,9,,33.5125,5.898,257.16,1.778,0.304,,,,,
CalCOFI,2101RL,036,,2101_036d,23-Jan-2021 19:07:13,23-Jan-2021 11:07:13,33.65560,-118.97172,086.7 040.0,086.7,040.0,10.000,10.072,,14.6268,,14.6273,,14.6271,33.5230,,33.5288,33.5200,,33.5220,33.5254,5.6264,,5.8885,5.8938,5.5440,,5.8863,5.8805,5.8872,245.166,256.9000,257.0164,241.577,273.0808,256.4399,256.7282,0.1864,,1.2792,1.8735, ,, , ,24.9141,,24.9116,,0.9506,78.8485,,,,5.6716E+02,,1.8827E+00,,14.6254,14.6258,0.0285,303.248,97.216,95.792,,,,,,,,,,,,
CalCOFI,2101RL,036,,2101_036d,23-Jan-2021 19:07:14,23-Jan-2021 11:07:14,33.65560,-118.97173,086.7 040.0,086.7,040.0,11.000,11.079,,14.6275,,14.6278,,14.6277,33.5232,,33.5290,33.5201,,33.5221,33.5256,5.6230,,5.8849,5.8903,5.5476,,5.8901,5.8844,5.8874,245.020,256.7471,256.8633,241.732,272.9185,256.6054,256.7344,0.1867,,1.2816,1.8772, ,, , ,24.9141,,24.9116,,0.9505,78.8498,,,,5.6858E+02,,1.5425E+00,,14.6259,14.6261,0.0315,303.278,97.160,95.854,,,,,,,,,,,,
CalCOFI,2101RL,036,,2101_036d,23-Jan-2021 19:07:16,23-Jan-2021 11:07:16,33.65560,-118.97174,086.7 040.0,086.7,040.0,12.000,12.086,,14.6266,,14.6267,,14.6267,33.5231,,33.5289,33.5200,,33.5220,33.5255,5.6234,,5.8854,5.8907,5.5574,,5.9005,5.8948,5.8928,245.038,256.7660,256.8822,242.163,272.9385,257.0655,256.9739,0.1845,,1.2636,1.8501, ,, , ,24.9142,,24.9118,,0.9495,78.8695,,,,5.6778E+02,,1.2620E+00,,14.6248,14.6249,0.0346,303.295,97.165,96.023,,,,,,,,,,,,
CalCOFI,2101RL,036,,2101_036d,23-Jan-2021 19:07:17,23-Jan-2021 11:07:17,33.65560,-118.97174,086.7 040.0,086.7,040.0,13.000,13.093,,14.6275,,14.6277,,14.6276,33.5232,,33.5290,33.5201,,33.5221,33.5256,5.6300,,5.8923,5.8976,5.5643,,5.9078,5.9022,5.8999,245.324,257.0654,257.1822,242.463,273.2565,257.3858,257.2840,0.1831,,1.2521,1.8329, ,, , ,24.9141,,24.9118,,0.9481,78.8966,,,,5.6851E+02,,1.0203E+00,,14.6256,14.6258,0.0377,303.334,97.280,96.144,,,,,,,,,,,,
CalCOFI,2101RL,036,,2101_036d,23-Jan-2021 19:07:18,23-Jan-2021 11:07:18,33.65560,-118.97174,086.7 040.0,086.7,040.0,14.000,14.101,,14.6279,,14.6290,,14.6285,33.5232,,33.5290,33.5202,,33.5222,33.5256,5.6352,,5.8977,5.9030,5.5744,,5.9186,5.9130,5.9080,245.549,257.3009,257.4181,242.900,273.5067,257.8523,257.6352,0.1822,,1.2448,1.8218, ,, , ,24.9141,,24.9115,,0.9478,78.9030,,,,5.6871E+02,,7.8384E-01,,14.6259,14.6270,0.0407,303.366,97.370,96.320,,,,,,,,,,,,
CalCOFI,2101RL,036,,2101_036d,23-Jan-2021 19:07:21,23-Jan-2021 11:07:21,33.65559,-118.97173,086.7 040.0,086.7,040.0,15.000,15.108,,14.6257,,14.6260,,14.6259,33.5229,,33.5287,33.5199,,33.5219,33.5253,5.6305,,5.8928,5.8981,5.5753,,5.9195,5.9139,5.9060,245.345,257.0873,257.2042,242.940,273.2799,257.8950,257.5496,0.1837,,1.2571,1.8402, ,, , ,24.9144,,24.9120,,0.9487,78.8845,,,,5.7017E+02,,5.5891E-01,,14.6235,14.6238,0.0438,303.370,97.285,96.330,,,,,,,,,,,,
CalCOFI,2101RL,036,,2101_036d,23-Jan-2021 19:07:28,23-Jan-2021 11:07:28,33.65557,-118.97173,086.7 040.0,086.7,040.0,16.000,16.115,,14.6257,,14.6260,,14.6259,33.5229,,33.5287,33.5199,,33.5219,33.5253,5.6278,,5.8900,5.8953,5.5611,,5.9044,5.8988,5.8971,245.229,256.9659,257.0825,242.322,273.1509,257.2353,257.1589,0.1872,,1.2857,1.8833, ,, , ,24.9144,,24.9120,,0.9498,78.8631,,,,5.7358E+02,,3.6372E-01,,14.6234,14.6237,0.0468,303.395,97.239,96.085,,,,,,,,,,,,
CalCOFI,2101RL,036,,2101_036d,23-Jan-2021 19:07:36,23-Jan-2021 11:07:36,33.65556,-118.97172,086.7 040.0,086.7,040.0,17.000,17.122,,14.6250,,14.6253,,14.6252,33.5228,,33.5286,33.5198,,33.5218,33.5252,5.6110,,5.8724,5.8777,5.5678,,5.9116,5.9059,5.8918,244.496,256.1986,256.3138,242.613,272.3358,257.5459,256.9299,0.1898,,1.3070,1.9153, ,, , ,24.9145,,24.9121,,0.9508,78.8436,,,,5.7806E+02,,2.1781E-01,,14.6225,14.6228,0.0500,303.415,96.947,96.199,,,,,,,,,,,,
CalCOFI,2101RL,036,,2101_036d,23-Jan-2021 19:07:39,23-Jan-2021 11:07:39,33.65556,-118.97172,086.7 040.0,086.7,040.0,18.000,18.130,,14.6247,,14.6250,,14.6249,33.5228,,33.5286,33.5198,,33.5218,33.5252,5.6191,,5.8809,5.8862,5.5594,,5.9026,5.8970,5.8916,244.847,256.5660,256.6819,242.247,272.7261,257.1552,256.9186,0.1866,,1.2808,1.8759, ,, , ,24.9146,,24.9123,,0.9463,78.9332,,,,5.7830E+02,,9.7886E-02,,14.6220,14.6223,0.0530,303.439,97.086,96.053,,,,,,,,,,,,
CalCOFI,2101RL,036,,2101_036d,23-Jan-2021 19:07:43,23-Jan-2021 11:07:43,33.65554,-118.97172,086.7 040.0,086.7,040.0,19.000,19.137,,14.6239,,14.6239,,14.6239,33.5228,,33.5286,33.5199,,33.5219,33.5253,5.6072,,5.8684,5.8737,5.5445,,5.8868,5.8811,5.8774,244.328,256.0228,256.1377,241.598,272.1490,256.4623,256.3000,0.1891,,1.3013,1.9067, ,, , ,24.9148,,24.9126,,0.9426,79.0068,,,,5.8104E+02,,8.1226E-03,,14.6211,14.6211,0.0561,303.445,96.878,95.794,,,,,,,,,,,,
CalCOFI,2101RL,036,,2101_036d,23-Jan-2021 19:07:45,23-Jan-2021 11:07:45,33.65554,-118.97173,086.7 040.0,086.7,040.0,20.000,20.144,,14.6228,,14.6230,,14.6229,33.5233,,33.5291,33.5202,,33.5222,33.5257,5.6138,,5.8753,5.8806,5.5370,,5.8788,5.8731,5.8769,244.619,256.3274,256.4428,241.271,272.4726,256.1133,256.2781,0.1847,,1.2653,1.8526, ,, , ,24.9155,,24.9130,,0.9397,79.0635,,,,5.8230E+02,,-7.493E-05,,14.6199,14.6200,0.0591,303.416,96.992,95.663,20,,33.5112,5.903,257.38,2.077,0.120,,,,,
CalCOFI,2101RL,036,,2101_036d,23-Jan-2021 19:07:48,23-Jan-2021 11:07:48,33.65554,-118.97174,086.7 040.0,086.7,040.0,21.000,21.151,,14.6220,,14.6216,,14.6218,33.5230,,33.5288,33.5200,,33.5220,33.5254,5.6066,,5.8678,5.8731,5.5408,,5.8829,5.8771,5.8751,244.306,255.9997,256.1146,241.437,272.1245,256.2905,256.2026,0.1835,,1.2554,1.8378, ,, , ,24.9155,,24.9132,,0.9352,79.1513,,,,5.8357E+02,,1.0000E-12,,14.6189,14.6185,0.0622,303.444,96.866,95.726,,,,,,,,,,,,
CalCOFI,2101RL,036,,2101_036d,23-Jan-2021 19:07:50,23-Jan-2021 11:07:50,33.65552,-118.97174,086.7 040.0,086.7,040.0,22.000,22.159,,14.6176,,14.6187,,14.6182,33.5217,,33.5275,33.5192,,33.5212,33.5244,5.6026,,5.8636,5.8689,5.5339,,5.8756,5.8698,5.8694,244.130,255.8155,255.9301,241.136,271.9288,255.9691,255.9496,0.1797,,1.2243,1.7910, ,, , ,24.9154,,24.9132,,0.9327,79.2019,,,,5.8377E+02,,1.0000E-12,,14.6144,14.6155,0.0652,303.479,96.787,95.601,,,,,,,,,,,,
CalCOFI,2101RL,036,,2101_036d,23-Jan-2021 19:07:52,23-Jan-2021 11:07:52,33.65552,-118.97174,086.7 040.0,086.7,040.0,23.000,23.166,,14.6137,,14.6153,,14.6145,33.5209,,33.5267,33.5184,,33.5204,33.5236,5.6154,,5.8770,5.8823,5.5451,,5.8875,5.8817,5.8820,244.687,256.3986,256.5142,241.623,272.5482,256.4890,256.5016,0.1792,,1.2202,1.7849, ,, , ,24.9157,,24.9134,,0.9328,79.2002,,,,5.8394E+02,,1.0000E-12,,14.6103,14.6119,0.0683,303.488,97.000,95.787,,,,,,,,,,,,
CalCOFI,2101RL,036,,2101_036d,23-Jan-2021 19:07:54,23-Jan-2021 11:07:54,33.65552,-118.97174,086.7 040.0,086.7,040.0,24.000,24.173,,14.6119,,14.6132,,14.6126,33.5208,,33.5266,33.5178,,33.5198,33.5232,5.6121,,5.8735,5.8788,5.5321,,5.8736,5.8678,5.8733,244.543,256.2478,256.3631,241.057,272.3881,255.8848,256.1240,0.1786,,1.2153,1.7775, ,, , ,24.9160,,24.9134,,0.9278,79.2978,,,,5.8570E+02,,1.0000E-12,,14.6084,14.6097,0.0714,303.482,96.939,95.558,,,,,,,,,,,,
CalCOFI,2101RL,036,,2101_036d,23-Jan-2021 19:07:56,23-Jan-2021 11:07:56,33.65550,-118.97174,086.7 040.0,086.7,040.0,25.000,25.180,,14.6190,,14.6200,,14.6195,33.5222,,33.5280,33.5191,,33.5211,33.5246,5.6043,,5.8654,5.8707,5.5359,,5.8777,5.8719,5.8713,244.203,255.8919,256.0066,241.223,272.0100,256.0620,256.0343,0.1796,,1.2235,1.7898, ,, , ,24.9156,,24.9130,,0.9269,79.3163,,,,5.8749E+02,,1.0000E-12,,14.6153,14.6163,0.0744,303.557,96.819,95.637,,,,,,,,,,,,
CalCOFI,2101RL,036,,2101_036d,23-Jan-2021 19:07:57,23-Jan-2021 11:07:57,33.65550,-118.97174,086.7 040.0,086.7,040.0,26.000,26.188,,14.6190,,14.6194,,14.6192,33.5220,,33.5278,33.5189,,33.5209,33.5244,5.6040,,5.8650,5.8703,5.5343,,5.8760,5.8702,5.8703,244.190,255.8783,255.9930,241.155,271.9955,255.9894,255.9912,0.1839,,1.2587,1.8427, ,, , ,24.9154,,24.9130,,0.9315,79.2249,,,,5.8806E+02,,1.0000E-12,,14.6152,14.6156,0.0775,303.599,96.814,95.609,,,,,,,,,,,,
CalCOFI,2101RL,036,,2101_036d,23-Jan-2021 19:07:59,23-Jan-2021 11:07:59,33.65550,-118.97174,086.7 040.0,086.7,040.0,27.000,27.195,,14.6166,,14.6161,,14.6164,33.5214,,33.5272,33.5183,,33.5203,33.5238,5.5934,,5.8540,5.8592,5.5300,,5.8714,5.8656,5.8624,243.729,255.3957,255.5095,240.966,271.4829,255.7877,255.6486,0.1814,,1.2382,1.8120, ,, , ,24.9156,,24.9133,,0.9295,79.2662,,,,5.8929E+02,,1.0000E-12,,14.6126,14.6122,0.0805,303.617,96.626,95.527,,,,,,,,,,,,
CalCOFI,2101RL,036,,2101_036d,23-Jan-2021 19:08:01,23-Jan-2021 11:08:01,33.65550,-118.97174,086.7 040.0,086.7,040.0,28.000,28.202,,14.6105,,14.6108,,14.6107,33.5204,,33.5262,33.5174,,33.5194,33.5228,5.6044,,5.8655,5.8708,5.5282,,5.8695,5.8637,5.8673,244.208,255.8971,256.0118,240.889,272.0155,255.7054,255.8586,0.1778,,1.2087,1.7677, ,, , ,24.9161,,24.9138,,0.9271,79.3136,,,,5.8960E+02,,1.0000E-12,,14.6063,14.6067,0.0836,303.594,96.803,95.487,,,,,,,,,,,,
CalCOFI,2101RL,036,,2101_036d,23-Jan-2021 19:08:03,23-Jan-2021 11:08:03,33.65550,-118.97172,086.7 040.0,086.7,040.0,29.000,29.210,,14.6103,,14.6108,,14.6106,33.5203,,33.5261,33.5173,,33.5193,33.5227,5.6128,,5.8743,5.8796,5.5244,,5.8655,5.8596,5.8696,244.574,256.2803,256.3957,240.722,272.4225,255.5272,255.9615,0.1766,,1.1989,1.7529, ,, , ,24.9161,,24.9137,,0.9241,79.3723,,,,5.8935E+02,,1.0000E-12,,14.6061,14.6065,0.0866,303.622,96.948,95.420,,,,,,,,,,,,
CalCOFI,2101RL,036,,2101_036d,23-Jan-2021 19:08:05,23-Jan-2021 11:08:05,33.65550,-118.97173,086.7 040.0,086.7,040.0,30.000,30.217,,14.6068,,14.6081,,14.6075,33.5201,,33.5259,33.5174,,33.5194,33.5227,5.5860,,5.8462,5.8515,5.5222,,5.8631,5.8573,5.8544,243.407,255.0586,255.1719,240.628,271.1248,255.4268,255.2994,0.1756,,1.1907,1.7406, ,, , ,24.9167,,24.9143,,0.9225,79.4032,,,,5.9115E+02,,1.0000E-12,,14.6024,14.6037,0.0897,303.595,96.479,95.378,,,,,,,,,,,,
CalCOFI,2101RL,036,,2101_036d,23-Jan-2021 19:08:07,23-Jan-2021 11:08:07,33.65550,-118.97174,086.7 040.0,086.7,040.0,31.000,31.224,,14.6028,,14.6034,,14.6031,33.5198,,33.5256,33.5170,,33.5190,33.5223,5.5712,,5.8307,5.8360,5.4973,,5.8367,5.8307,5.8334,242.761,254.3824,254.4944,239.542,270.4064,254.2675,254.3810,0.1645,,1.0997,1.6040, ,, , ,24.9174,,24.9151,,0.9170,79.5138,,,,5.9281E+02,,1.0000E-12,,14.5983,14.5988,0.0928,303.560,96.215,94.938,,,,,,,,,,,,
CalCOFI,2101RL,036,,2101_036d,23-Jan-2021 19:08:09,23-Jan-2021 11:08:09,33.65548,-118.97174,086.7 040.0,086.7,040.0,32.000,32.232,,14.5858,,14.5858,,14.5858,33.5186,,33.5244,33.5159,,33.5179,33.5212,5.5116,,5.7683,5.7735,5.4603,,5.7974,5.7912,5.7824,240.162,251.6618,251.7690,237.928,267.5163,252.5444,252.1567,0.1579,,1.0456,1.5228, ,, , ,24.9201,,24.9181,,0.9080,79.6914,,,,5.9461E+02,,1.0000E-12,,14.5811,14.5811,0.0958,303.330,95.152,94.265,,,,,,,,,,,,
CalCOFI,2101RL,036,,2101_036d,23-Jan-2021 19:08:11,23-Jan-2021 11:08:11,33.65548,-118.97174,086.7 040.0,086.7,040.0,33.000,33.239,,14.5661,,14.5653,,14.5657,33.5175,,33.5233,33.5149,,33.5169,33.5201,5.3034,,5.5504,5.5553,5.3232,,5.6518,5.6449,5.6001,231.092,242.1673,242.2576,231.953,257.4303,246.1657,244.2117,0.1487,,0.9703,1.4097, ,, , ,24.9235,,24.9217,,0.8940,79.9710,,,,5.9485E+02,,1.0000E-12,,14.5613,14.5605,0.0989,303.036,91.522,91.860,,,,,,,,,,,,
CalCOFI,2101RL,036,,2101_036d,23-Jan-2021 19:08:13,23-Jan-2021 11:08:13,33.65548,-118.97174,086.7 040.0,086.7,040.0,34.000,34.246,,14.4315,,14.4255,,14.4285,33.5096,,33.5154,33.5087,,33.5107,33.5131,5.1324,,5.3715,5.3760,5.1557,,5.4739,5.4662,5.4211,223.634,234.3603,234.4367,224.649,249.1369,238.3683,236.4025,0.1418,,0.9137,1.3248, ,, , ,24.9460,,24.9465,,0.8787,80.2790,,,,5.9589E+02,,1.0000E-12,,14.4266,14.4206,0.1019,300.919,88.327,88.717,,,,,,,,,,,,
CalCOFI,2101RL,036,,2101_036d,23-Jan-2021 19:08:15,23-Jan-2021 11:08:15,33.65547,-118.97174,086.7 040.0,086.7,040.0,35.000,35.253,,14.1861,,14.1813,,14.1837,33.5020,,33.5078,33.5001,,33.5021,33.5050,5.0378,,5.2725,5.2769,5.0449,,5.3562,5.3480,5.3125,219.503,230.0359,230.1047,219.814,244.5432,233.2066,231.6557,0.1247,,0.7736,1.1144, ,, , ,24.9918,,24.9913,,0.8529,80.7981,,,,5.9668E+02,,1.0000E-12,,14.1811,14.1763,0.1049,296.570,86.267,86.380,,,,,,,,,,,,
CalCOFI,2101RL,036,,2101_036d,23-Jan-2021 19:08:17,23-Jan-2021 11:08:17,33.65546,-118.97174,086.7 040.0,086.7,040.0,36.000,36.261,,14.0142,,14.0133,,14.0138,33.4961,,33.5019,33.4936,,33.4956,33.4988,4.8902,,5.1180,5.1222,4.9066,,5.2093,5.2004,5.1613,213.066,223.2977,223.3545,213.782,237.3851,226.7671,225.0608,0.1160,,0.7023,1.0074, ,, , ,25.0232,,25.0214,,0.8223,81.4173,,,,5.9768E+02,,1.0000E-12,,14.0091,14.0081,0.1079,293.606,83.445,83.723,,,,,,,,,,,,
CalCOFI,2101RL,036,,2101_036d,23-Jan-2021 19:08:19,23-Jan-2021 11:08:19,33.65544,-118.97174,086.7 040.0,086.7,040.0,37.000,37.268,,13.8250,,13.8206,,13.8228,33.4883,,33.4941,33.4854,,33.4874,33.4908,4.7828,,5.0056,5.0096,4.7990,,5.0950,5.0856,5.0476,208.379,218.3913,218.4395,209.085,232.1731,221.7528,220.0962,0.1120,,0.6695,0.9582, ,, , ,25.0562,,25.0549,,0.8078,81.7137,,,,6.0022E+02,,1.0000E-12,,13.8198,13.8153,0.1108,290.474,81.296,81.562,,,,,,,,,,,,
CalCOFI,2101RL,036,,2101_036d,23-Jan-2021 19:08:21,23-Jan-2021 11:08:21,33.65543,-118.97174,086.7 040.0,086.7,040.0,38.000,38.275,,13.6597,,13.6571,,13.6584,33.4808,,33.4866,33.4778,,33.4798,33.4832,4.6614,,4.8785,4.8823,4.6651,,4.9528,4.9427,4.9125,203.083,212.8475,212.8858,203.244,226.2839,215.5172,214.2015,0.1124,,0.6728,0.9631, ,, , ,25.0844,,25.0827,,0.8009,81.8546,,,,6.0106E+02,,1.0000E-12,,13.6544,13.6518,0.1138,287.813,78.962,79.018,,,,,,,,,,,,
CalCOFI,2101RL,036,,2101_036d,23-Jan-2021 19:08:23,23-Jan-2021 11:08:23,33.65542,-118.97174,086.7 040.0,086.7,040.0,39.000,39.283,,13.3957,,13.3869,,13.3913,33.4659,,33.4717,33.4634,,33.4654,33.4686,4.5775,,4.7907,4.7944,4.5729,,4.8549,4.8443,4.8194,199.420,209.0131,209.0445,199.219,222.2106,211.2203,210.1324,0.1088,,0.6433,0.9188, ,, , ,25.1265,,25.1264,,0.7915,82.0468,,,,6.0096E+02,,1.0000E-12,,13.3903,13.3815,0.1166,283.818,77.116,77.023,,,,,,,,,,,,
CalCOFI,2101RL,036,,2101_036d,23-Jan-2021 19:08:25,23-Jan-2021 11:08:25,33.65542,-118.97174,086.7 040.0,086.7,040.0,40.000,40.290,,13.2480,,13.2504,,13.2492,33.4606,,33.4664,33.4587,,33.4607,33.4636,4.5124,,4.7226,4.7262,4.5045,,4.7822,4.7713,4.7488,196.580,206.0401,206.0663,196.236,219.0524,208.0357,207.0510,0.1080,,0.6368,0.9090, ,, , ,25.1521,,25.1502,,0.7837,82.2070,,,,6.0359E+02,,1.0000E-12,,13.2425,13.2449,0.1195,281.393,75.787,75.657,,,,,,,,,,,,
CalCOFI,2101RL,036,,2101_036d,23-Jan-2021 19:08:26,23-Jan-2021 11:08:26,33.65542,-118.97174,086.7 040.0,086.7,040.0,41.000,41.298,,13.1521,,13.1519,,13.1520,33.4610,,33.4668,33.4580,,33.4600,33.4634,4.4733,,4.6817,4.6852,4.4553,,4.7300,4.7188,4.7020,194.873,204.2533,204.2763,194.087,217.1542,205.7415,205.0089,0.1087,,0.6425,0.9176, ,, , ,25.1716,,25.1693,,0.7784,82.3158,,,,6.0455E+02,,1.0000E-12,,13.1465,13.1463,0.1223,279.558,74.982,74.678,,,,,,,,,,,,
CalCOFI,2101RL,036,,2101_036d,23-Jan-2021 19:08:28,23-Jan-2021 11:08:28,33.65541,-118.97174,086.7 040.0,086.7,040.0,42.000,42.305,,13.0393,,13.0364,,13.0379,33.4642,,33.4700,33.4616,,33.4636,33.4668,4.4331,,4.6396,4.6431,4.4149,,4.6871,4.6757,4.6594,193.117,202.4151,202.4348,192.325,215.2015,203.8605,203.1477,0.1032,,0.5974,0.8499, ,, , ,25.1966,,25.1951,,0.7761,82.3624,,,,6.0411E+02,,1.0000E-12,,13.0336,13.0307,0.1251,277.204,74.137,73.828,,,,,,,,,,,,
CalCOFI,2101RL,036,,2101_036d,23-Jan-2021 19:08:31,23-Jan-2021 11:08:31,33.65540,-118.97174,086.7 040.0,086.7,040.0,43.000,43.312,,12.9568,,12.9597,,12.9583,33.4708,,33.4766,33.4674,,33.4694,33.4730,4.3248,,4.5262,4.5295,4.3240,,4.5905,4.5787,4.5541,188.396,197.4731,197.4841,188.359,209.9517,199.6266,198.5554,0.1000,,0.5712,0.8105, ,, , ,25.2180,,25.2148,,0.7720,82.4488,,,,6.0576E+02,,1.0000E-12,,12.9510,12.9538,0.1279,275.185,72.206,72.194,,,,,,,,,,,,
CalCOFI,2101RL,036,,2101_036d,23-Jan-2021 19:08:33,23-Jan-2021 11:08:33,33.65540,-118.97174,086.7 040.0,086.7,040.0,44.000,44.320,,12.8619,,12.8584,,12.8602,33.4720,,33.4778,33.4696,,33.4716,33.4747,4.2137,,4.4100,4.4131,4.2378,,4.4990,4.4868,4.4500,183.553,192.4035,192.4055,184.601,204.5662,195.6147,194.0101,0.0999,,0.5704,0.8093, ,, , ,25.2376,,25.2365,,0.7662,82.5668,,,,6.0778E+02,,1.0000E-12,,12.8560,12.8525,0.1306,273.340,70.214,70.609,,,,,,,,,,,,
CalCOFI,2101RL,036,,2101_036d,23-Jan-2021 19:08:35,23-Jan-2021 11:08:35,33.65540,-118.97174,086.7 040.0,086.7,040.0,45.000,45.327,,12.5160,,12.5112,,12.5136,33.4616,,33.4674,33.4588,,33.4608,33.4641,4.2080,,4.4040,4.4071,4.1964,,4.4550,4.4426,4.4249,183.292,192.1303,192.1318,182.786,204.2760,193.6771,192.9045,0.0911,,0.4983,0.7011, ,, , ,25.2970,,25.2958,,0.7536,82.8288,,,,6.0833E+02,,1.0000E-12,,12.5101,12.5053,0.1334,267.692,69.612,69.412,,,,,,,,,,,,
CalCOFI,2101RL,036,,2101_036d,23-Jan-2021 19:08:37,23-Jan-2021 11:08:37,33.65540,-118.97174,086.7 040.0,086.7,040.0,46.000,46.334,,12.3688,,12.3680,,12.3684,33.4632,,33.4690,33.4602,,33.4622,33.4656,4.1888,,4.3839,4.3870,4.1623,,4.4188,4.4062,4.3966,182.449,191.2478,191.2477,181.297,203.3386,192.0875,191.6676,0.0864,,0.4598,0.6432, ,, , ,25.3267,,25.3245,,0.7467,82.9704,,,,6.0782E+02,,1.0000E-12,,12.3628,12.3620,0.1361,264.879,69.083,68.644,,,,,,,,,,,,
CalCOFI,2101RL,036,,2101_036d,23-Jan-2021 19:08:39,23-Jan-2021 11:08:39,33.65540,-118.97174,086.7 040.0,086.7,040.0,47.000,47.342,,12.3284,,12.3283,,12.3284,33.4754,,33.4812,33.4723,,33.4743,33.4778,4.1321,,4.3246,4.3276,4.1149,,4.3684,4.3556,4.3416,179.979,188.6622,188.6575,179.228,200.5919,189.8787,189.2681,0.0870,,0.4647,0.6506, ,, , ,25.3439,,25.3415,,0.7448,83.0117,,,,6.1022E+02,,1.0000E-12,,12.3223,12.3222,0.1387,263.267,68.096,67.811,,,,,,,,,,,,
CalCOFI,2101RL,036,,2101_036d,23-Jan-2021 19:08:40,23-Jan-2021 11:08:40,33.65540,-118.97174,086.7 040.0,086.7,040.0,48.000,48.349,,12.3013,,12.3013,,12.3013,33.4892,,33.4950,33.4863,,33.4883,33.4917,4.0870,,4.2774,4.2803,4.0733,,4.3243,4.3112,4.2958,178.010,186.6011,186.5927,177.413,198.4023,187.9411,187.2669,0.0893,,0.4835,0.6789, ,, , ,25.3598,,25.3576,,0.7445,83.0172,,,,6.1224E+02,,1.0000E-12,,12.2950,12.2951,0.1414,261.779,67.320,67.093,,,,,,,,,,,,
CalCOFI,2101RL,036,,2101_036d,23-Jan-2021 19:08:42,23-Jan-2021 11:08:42,33.65540,-118.97174,086.7 040.0,086.7,040.0,49.000,49.357,,12.2973,,12.2974,,12.2974,33.5050,,33.5108,33.5019,,33.5039,33.5074,4.0336,,4.2215,4.2243,4.0224,,4.2702,4.2569,4.2406,175.681,184.1631,184.1504,175.195,195.8124,185.5732,184.8618,0.0877,,0.4704,0.6592, ,, , ,25.3729,,25.3704,,0.7456,82.9936,,,,6.1331E+02,,1.0000E-12,,12.2908,12.2910,0.1440,260.564,66.441,66.256,,,,,,,,,,,,
CalCOFI,2101RL,036,,2101_036d,23-Jan-2021 19:08:44,23-Jan-2021 11:08:44,33.65540,-118.97175,086.7 040.0,086.7,040.0,50.000,50.364,,12.2676,,12.2679,,12.2678,33.5226,,33.5284,33.5195,,33.5215,33.5250,3.9288,,4.1118,4.1145,3.9226,,4.1642,4.1504,4.1325,171.114,179.3823,179.3612,170.846,190.7339,180.9304,180.1458,0.0844,,0.4434,0.6186, ,, , ,25.3922,,25.3897,,0.7450,83.0076,,,,6.1262E+02,,1.0000E-12,,12.2610,12.2614,0.1466,258.749,64.682,64.580,50,,33.5281,4.122,179.74,0.396,0.209,,,,,
CalCOFI,2101RL,036,,2101_036d,23-Jan-2021 19:08:47,23-Jan-2021 11:08:47,33.65540,-118.97176,086.7 040.0,086.7,040.0,51.000,51.371,,12.1854,,12.1868,,12.1861,33.5527,,33.5585,33.5496,,33.5516,33.5551,3.8756,,4.0561,4.0587,3.8523,,4.0895,4.0754,4.0671,168.792,176.9517,176.9262,167.779,188.1518,177.6562,177.2912,0.0810,,0.4155,0.5768, ,, , ,25.4313,,25.4286,,0.7460,82.9850,,,,6.1425E+02,,1.0000E-12,,12.1788,12.1802,0.1492,255.053,63.709,63.327,,,,,,,,,,,,